Location: *
(37.9500°N, 27.3666°E)
Time: 13:04:36
(UTC+00:00)

IRAS Rocket - Pass Details

Date: 24 October 2021
Orbit: 847 x 878 km, 100.1° (Epoch: 02 December)

Event Time Altitude Azimuth Distance (km) Brightness Sun altitude
Rises 16:23:15 0° 20° (NNE) 3,444 7.1 -12.9°
Reaches altitude 10° 16:25:42 10° 24° (NNE) 2,499 6.4 -13.4°
Maximum altitude 16:31:07 55° 102° (ESE) 1,019 4.3 -14.5°
Drops below altitude 10° 16:36:28 10° 180° (S) 2,466 6.7 -15.5°
Sets 16:38:52 0° 184° (S) 3,395 7.4 -16.0°
